This is the latest recevied weather packets stored in our database for station/object DOUGLAS. If no packets are shown the sender has not sent any weather packets the latest 10 day(s).
| Time | Temp. | Humidity | Pressure | Rain* | Wind** | Luminosity | Snow |
|---|---|---|---|---|---|---|---|
| 1777495203 | 17.22° C | 53% | 0 hPa | - | - | - | - |
| 1777494603 | 15.56° C | 51% | 0 hPa | - | - | - | - |
| 1777494003 | 15° C | 53% | 0 hPa | - | - | - | - |
| 1777493402 | 15.56° C | 57% | 0 hPa | - | - | - | - |
| 1777492803 | 15° C | 57% | 0 hPa | - | - | - | - |
| 1777492208 | 15.56° C | 54% | 0 hPa | - | - | - | - |
| 1777491004 | 14.44° C | 64% | 0 hPa | - | - | - | - |
| 1777490403 | 13.89° C | 68% | 0 hPa | - | - | - | - |
| 1777489803 | 13.33° C | 67% | 0 hPa | - | - | - | - |
| 1777489203 | 12.78° C | 66% | 0 hPa | - | - | - | - |
| 1777488603 | 12.22° C | 69% | 0 hPa | - | - | - | - |
| 1777488003 | 13.33° C | 67% | 0 hPa | - | - | - | - |
| 1777487404 | 12.22° C | 71% | 0 hPa | - | - | - | - |
| 1777486803 | 12.22° C | 72% | 0 hPa | - | - | - | - |
| 1777486208 | 11.67° C | 75% | 0 hPa | - | - | - | - |
| 1777485603 | 10.56° C | 72% | 0 hPa | - | - | - | - |
| 1777485003 | 10.56° C | 76% | 0 hPa | - | - | - | - |
| 1777484403 | 10.56° C | 71% | 0 hPa | - | - | - | - |
| 1777483803 | 10° C | 73% | 0 hPa | - | - | - | - |
| 1777483203 | 8.89° C | 74% | 0 hPa | - | - | - | - |
| 1777482602 | 7.78° C | 80% | 0 hPa | - | - | - | - |
| 1777482003 | 7.78° C | 80% | 0 hPa | - | - | - | - |
| 1777481403 | 7.22° C | 83% | 0 hPa | - | - | - | - |
| 1777480803 | 7.22° C | 85% | 0 hPa | - | - | - | - |
| 1777480203 | 7.78° C | 91% | 0 hPa | - | - | - | - |
* Rain since midnight (hover to see other rain measurements)
** Current wind speed in m/s (hover to see current wind gust speed)